• Em Portugal
  • Lista de países
  • Para 7 dias
  • Temperatura da água
  • Mapas de satélite
  • Mapa do tempo
  • Widgets de tempo
  • user-avatar
    Iniciar Sessão

    Previsão horária em Gorozyanki

    Hoje, 12 Novembro, Segunda-feira

    Tempo Temperatura Precipitação Vento Pressão Humidade
    00:00 -2°C° 0 mm 7 m/s 758 mmHg 75%
    01:00 -2°C° 0 mm 7 m/s 758 mmHg 74%
    02:00 0°C° 0 mm 5 m/s 758 mmHg 76%
    03:00 -1°C° 0 mm 5 m/s 758 mmHg 75%
    04:00 -2°C° 0 mm 6 m/s 758 mmHg 75%
    05:00 -2°C° 0 mm 6 m/s 758 mmHg 74%
    06:00 -3°C° 0 mm 6 m/s 758 mmHg 75%
    07:00 -3°C° 0 mm 6 m/s 759 mmHg 75%
    08:00 -3°C° 0 mm 6 m/s 759 mmHg 75%
    09:00 -3°C° 0 mm 6 m/s 759 mmHg 74%
    10:00 -3°C° 0 mm 6 m/s 759 mmHg 73%
    11:00 -3°C° 0 mm 7 m/s 759 mmHg 72%
    12:00 -2°C° 0 mm 6 m/s 759 mmHg 71%
    13:00 -2°C° 0 mm 6 m/s 759 mmHg 71%
    14:00 -2°C° 0 mm 7 m/s 759 mmHg 72%
    15:00 -2°C° 0 mm 6 m/s 759 mmHg 71%
    16:00 -2°C° 0 mm 6 m/s 759 mmHg 71%
    17:00 -2°C° 0 mm 6 m/s 759 mmHg 70%
    18:00 -2°C° 0 mm 6 m/s 759 mmHg 69%
    19:00 -2°C° 0 mm 6 m/s 759 mmHg 68%
    20:00 -2°C° 0 mm 6 m/s 759 mmHg 67%
    21:00 -2°C° 0 mm 6 m/s 759 mmHg 66%
    22:00 -3°C° 0 mm 6 m/s 759 mmHg 66%
    23:00 -3°C° 0 mm 6 m/s 759 mmHg 65%

    Amanhã, 13 Novembro, Terça-feira

    Tempo Temperatura Precipitação Vento Pressão Humidade
    00:00 -3°C° 0 mm 6 m/s 759 mmHg 66%
    01:00 -3°C° 0 mm 6 m/s 759 mmHg 66%
    02:00 -3°C° 0 mm 7 m/s 759 mmHg 66%
    03:00 -3°C° 0 mm 7 m/s 758 mmHg 67%
    04:00 -3°C° 0 mm 7 m/s 758 mmHg 68%
    05:00 -3°C° 0 mm 7 m/s 758 mmHg 68%
    06:00 -3°C° 0 mm 7 m/s 758 mmHg 68%
    07:00 -3°C° 0 mm 7 m/s 757 mmHg 69%
    08:00 -3°C° 0 mm 7 m/s 757 mmHg 69%
    09:00 -3°C° 0 mm 7 m/s 757 mmHg 67%
    10:00 -2°C° 0 mm 7 m/s 757 mmHg 65%
    11:00 -2°C° 0 mm 7 m/s 757 mmHg 64%
    12:00 -1°C° 0 mm 7 m/s 756 mmHg 63%
    13:00 -1°C° 0 mm 7 m/s 756 mmHg 63%
    14:00 0°C° 0 mm 7 m/s 756 mmHg 62%
    15:00 -1°C° 0 mm 7 m/s 755 mmHg 62%
    16:00 -1°C° 0 mm 7 m/s 755 mmHg 63%
    17:00 -1°C° 0 mm 7 m/s 754 mmHg 63%
    18:00 -1°C° 0 mm 7 m/s 754 mmHg 63%
    19:00 -2°C° 0 mm 7 m/s 754 mmHg 62%
    20:00 -2°C° 0 mm 6 m/s 753 mmHg 62%
    21:00 -2°C° 0.1 mm 7 m/s 753 mmHg 63%
    22:00 -2°C° 0.1 mm 7 m/s 752 mmHg 64%
    23:00 -2°C° 0.1 mm 7 m/s 751 mmHg 65%

    Depois de amanhã, 14 Novembro, Quarta-feira

    Tempo Temperatura Precipitação Vento Pressão Humidade
    00:00 -2°C° 0.2 mm 7 m/s 751 mmHg 66%
    01:00 -2°C° 0.2 mm 7 m/s 750 mmHg 67%
    02:00 -2°C° 0.2 mm 7 m/s 750 mmHg 67%
    03:00 -2°C° 1.2 mm 7 m/s 749 mmHg 74%
    04:00 -2°C° 1.2 mm 7 m/s 748 mmHg 81%
    05:00 -3°C° 1.2 mm 7 m/s 748 mmHg 88%
    06:00 -2°C° 1 mm 6 m/s 748 mmHg 89%
    07:00 -2°C° 1 mm 6 m/s 747 mmHg 90%
    08:00 -1°C° 1 mm 5 m/s 747 mmHg 91%
    09:00 -1°C° 0.2 mm 5 m/s 747 mmHg 91%
    10:00 0°C° 0.2 mm 5 m/s 747 mmHg 92%
    11:00 0°C° 0.2 mm 5 m/s 747 mmHg 92%
    12:00 +1°C° 0.1 mm 5 m/s 747 mmHg 93%
    13:00 +1°C° 0.1 mm 4 m/s 747 mmHg 93%
    14:00 +1°C° 0.1 mm 4 m/s 747 mmHg 94%
    15:00 +3°C° 0.2 mm 4 m/s 748 mmHg 94%
    16:00 +3°C° 0.2 mm 3 m/s 748 mmHg 95%
    17:00 +3°C° 0.2 mm 3 m/s 748 mmHg 95%
    18:00 +3°C° 0.1 mm 3 m/s 749 mmHg 95%
    19:00 +2°C° 0.1 mm 3 m/s 749 mmHg 95%
    20:00 +2°C° 0.1 mm 3 m/s 749 mmHg 95%
    21:00 +2°C° 0.1 mm 3 m/s 750 mmHg 94%
    22:00 +2°C° 0.1 mm 3 m/s 750 mmHg 94%
    23:00 +2°C° 0.1 mm 3 m/s 751 mmHg 94%

    15 Novembro, Quinta-feira

    Tempo Temperatura Precipitação Vento Pressão Humidade
    00:00 +2°C° 0.1 mm 3 m/s 752 mmHg 93%
    01:00 +1°C° 0.1 mm 3 m/s 752 mmHg 93%
    02:00 +2°C° 0.1 mm 2 m/s 753 mmHg 93%
    03:00 +2°C° 0 mm 2 m/s 753 mmHg 93%
    04:00 +2°C° 0 mm 2 m/s 754 mmHg 93%
    05:00 +2°C° 0 mm 2 m/s 754 mmHg 93%
    06:00 +2°C° 0 mm 2 m/s 755 mmHg 93%
    07:00 +1°C° 0 mm 2 m/s 755 mmHg 93%
    08:00 +2°C° 0 mm 1 m/s 756 mmHg 93%
    09:00 +3°C° 0 mm 1 m/s 757 mmHg 92%
    10:00 +3°C° 0 mm 1 m/s 757 mmHg 91%
    11:00 +3°C° 0 mm 1 m/s 758 mmHg 90%
    12:00 +3°C° 0 mm 1 m/s 758 mmHg 89%
    13:00 +4°C° 0 mm 1 m/s 758 mmHg 88%
    14:00 +4°C° 0 mm 1 m/s 759 mmHg 87%
    15:00 +4°C° 0 mm 1 m/s 759 mmHg 89%
    16:00 +3°C° 0 mm 1 m/s 759 mmHg 91%
    17:00 +3°C° 0 mm 1 m/s 760 mmHg 92%
    18:00 +3°C° 0 mm 1 m/s 760 mmHg 92%
    19:00 +3°C° 0 mm 1 m/s 761 mmHg 92%
    20:00 +3°C° 0 mm 1 m/s 761 mmHg 92%
    21:00 +3°C° 0 mm 1 m/s 761 mmHg 92%
    22:00 +3°C° 0 mm 1 m/s 762 mmHg 92%
    23:00 +3°C° 0 mm 1 m/s 762 mmHg 92%

    16 Novembro, Sexta-feira

    Tempo Temperatura Precipitação Vento Pressão Humidade
    00:00 +3°C° 0 mm 1 m/s 762 mmHg 93%
    01:00 +3°C° 0 mm 1 m/s 763 mmHg 93%
    02:00 +3°C° 0 mm 1 m/s 763 mmHg 93%
    03:00 +2°C° 0 mm 0 m/s 763 mmHg 93%
    04:00 +2°C° 0 mm 0 m/s 763 mmHg 93%
    05:00 +2°C° 0 mm 0 m/s 763 mmHg 93%
    06:00 +1°C° 0 mm 0 m/s 764 mmHg 93%
    07:00 +1°C° 0 mm 0 m/s 764 mmHg 94%
    08:00 +1°C° 0 mm 0 m/s 764 mmHg 94%
    09:00 +2°C° 0 mm 0 m/s 764 mmHg 91%
    10:00 +2°C° 0 mm 0 m/s 764 mmHg 89%
    11:00 +3°C° 0 mm 0 m/s 765 mmHg 86%
    12:00 +3°C° 0 mm 0 m/s 765 mmHg 85%
    13:00 +3°C° 0 mm 0 m/s 765 mmHg 83%
    14:00 +4°C° 0 mm 0 m/s 765 mmHg 82%
    15:00 +3°C° 0 mm 0 m/s 765 mmHg 83%
    16:00 +3°C° 0 mm 0 m/s 765 mmHg 85%
    17:00 +3°C° 0 mm 0 m/s 765 mmHg 87%
    18:00 +2°C° 0 mm 0 m/s 765 mmHg 87%
    19:00 +3°C° 0 mm 1 m/s 765 mmHg 87%
    20:00 +3°C° 0 mm 1 m/s 765 mmHg 87%
    21:00 +3°C° 0 mm 1 m/s 765 mmHg 87%
    22:00 +3°C° 0 mm 1 m/s 765 mmHg 88%
    23:00 +3°C° 0 mm 1 m/s 765 mmHg 88%

    17 Novembro, Sábado

    Tempo Temperatura Precipitação Vento Pressão Humidade
    00:00 +3°C° 0 mm 1 m/s 765 mmHg 89%
    01:00 +2°C° 0 mm 1 m/s 765 mmHg 89%
    02:00 +2°C° 0 mm 1 m/s 765 mmHg 90%
    03:00 +2°C° 0 mm 1 m/s 765 mmHg 90%
    04:00 +2°C° 0 mm 1 m/s 765 mmHg 90%
    05:00 +2°C° 0 mm 1 m/s 765 mmHg 90%
    06:00 +2°C° 0 mm 1 m/s 764 mmHg 91%
    07:00 +1°C° 0 mm 2 m/s 764 mmHg 92%
    08:00 +1°C° 0 mm 2 m/s 764 mmHg 92%
    09:00 +1°C° 0 mm 2 m/s 764 mmHg 90%
    10:00 +2°C° 0 mm 2 m/s 764 mmHg 87%
    11:00 +3°C° 0 mm 2 m/s 764 mmHg 85%
    12:00 +2°C° 0 mm 3 m/s 763 mmHg 84%
    13:00 +3°C° 0 mm 3 m/s 763 mmHg 83%
    14:00 +3°C° 0 mm 3 m/s 763 mmHg 82%
    15:00 +3°C° 0 mm 3 m/s 762 mmHg 85%
    16:00 +2°C° 0 mm 3 m/s 762 mmHg 88%
    17:00 +2°C° 0 mm 3 m/s 761 mmHg 91%
    18:00 +2°C° 0 mm 3 m/s 761 mmHg 91%
    19:00 +2°C° 0 mm 3 m/s 760 mmHg 92%
    20:00 +2°C° 0 mm 3 m/s 760 mmHg 92%
    21:00 +1°C° 0 mm 4 m/s 759 mmHg 92%
    22:00 +1°C° 0 mm 4 m/s 759 mmHg 92%
    23:00 +1°C° 0 mm 4 m/s 758 mmHg 92%
    Mostrar mais